Showing default

O3B FM7, 40080

Orbit data source: Space-Track

O3B FM7, 40080 is a payload satellite owned by O3B (JE) that was launched on Thu, 10 Jul 2014 UTC via a SOYUZ-ST-B launch vehicle from the French Guiana (FRGUI). Payload-class satellites include a variety of spacecraft equipped with specific instruments for various scientific and technological missions. These include communications satellites like Starlink; space stations such as the ISS; scientific satellites like the Hubble; Earth observation satellites from companies like Planet Labs, Umbra, and HawkEye 360; GPS; miniature CubeSats for education and research; and military/defense satellites.

Loading next visibility...
Identifier
40080, 2014-038B
Orbit
Active
Country
Flag of UnknownUnknown / O3B
Related business
Manufacturer
Thales Alenia
Mission
Operational Commercial Communications
Bus & Motor
PRISMA?, LS-400 AOCS?
Mass
700 kg wet, ~500 kg dry
Launch date (UTC)
2014-07-10 (11 years ago)
Launch vehicle
SOYUZ-ST-B
Launch site
French Guiana (FRGUI)
Object type
Payload
Rocket body
Debris
Shape & HBR
Trap Box + 2 Pan, 6.0 m
Radar Cross Section
21.980 m², Large (>1 m²)

Expand to show TLE details & history
Last TLE update: 2 days ago

TLE from 2 days ago
0 O3B FM7
1 40080U 14038B   25341.35685752 -.00000021  00000-0  00000-0 0  9998
2 40080   0.0604 358.1569 0004502 264.4688  97.3248  5.00115424208285
Epoch: 2025-12-07T08:33Z
TLE epoch observation values (Epoch: 2025-12-07T08:33:52.489Z)
Latitude
0.00371°
Longitude
155.15979°
Altitude
8,065.206 km
Speed
5.254 km/s
True Right ascension
23h 59m 59s
True Declination
0° 00' 13"
Sunlit
Object was in daylight at epoch
Visualization orbit readout
Latitude
Unknown
Longitude
Unknown
Altitude
Unknown
Speed
Unknown
Apparent Right ascension
Unknown
Apparent Declination
Unknown
Sunlit
N/A
Visualization observer readout
Local Sidereal Time
09:47:46
Azimuth
Unknown
Elevation
Unknown
Doppler factor
Unknown
Orbital elements
Apogee altitude
8,075.454 km
Perigee altitude
8,062.446 km
Semi-major axis
14,447.087 km
Eccentricity
0.00045
Inclination
0.0604°
RAAN
358.1569°
Arg. of periapsis
264.4688°
True anomaly
97.37596°
Mean anomaly
97.3248°
Eccentric anomaly
97.35038°
Mean motion
1.24989 °/min
Orbital period
288.02 mins
BSTAR
0
Loading maneuver chart data...
Computing Atmospheric mass density...
Loading historical data...
Loading historical data...
Loading historical data...
Loading historical data...
Loading historical data...
Loading historical data...
Loading historical data...
Other satellites on launch #38 in the year 2014 (2014-07-10 UTC)

Documentation

Showing up to 5 results
|